locationName,lineName,date,time,countIn,countOut
�����w�O,��������,2022/6/1,0:00,0,0
�����w�O,��������,2022/6/1,1:00,0,0
�����w�O,��������,2022/6/1,2:00,0,0
�����w�O,��������,2022/6/1,3:00,0,0
�����w�O,��������,2022/6/1,4:00,0,0
�����w�O,��������,2022/6/1,5:00,0,0
�����w�O,��������,2022/6/1,6:00,0,0
�����w�O,��������,2022/6/1,7:00,0,0
�����w�O,��������,2022/6/1,8:00,0,0
�����w�O,��������,2022/6/1,9:00,0,0
�����w�O,��������,2022/6/1,10:00,0,0
�����w�O,��������,2022/6/1,11:00,159,184
�����w�O,��������,2022/6/1,12:00,175,215
�����w�O,��������,2022/6/1,13:00,184,169
�����w�O,��������,2022/6/1,14:00,128,152
�����w�O,��������,2022/6/1,15:00,365,338
�����w�O,��������,2022/6/1,16:00,383,305
�����w�O,��������,2022/6/1,17:00,344,237
�����w�O,��������,2022/6/1,18:00,208,185
�����w�O,��������,2022/6/1,19:00,175,185
�����w�O,��������,2022/6/1,20:00,71,101
�����w�O,��������,2022/6/1,21:00,56,58
�����w�O,��������,2022/6/1,22:00,34,48
�����w�O,��������,2022/6/1,23:00,15,28
�����w�O,��������,2022/6/2,0:00,5,7
�����w�O,��������,2022/6/2,1:00,0,1
�����w�O,��������,2022/6/2,2:00,0,1
�����w�O,��������,2022/6/2,3:00,5,4
�����w�O,��������,2022/6/2,4:00,0,1
�����w�O,��������,2022/6/2,5:00,9,11
�����w�O,��������,2022/6/2,6:00,67,59
�����w�O,��������,2022/6/2,7:00,211,163
�����w�O,��������,2022/6/2,8:00,197,224
�����w�O,��������,2022/6/2,9:00,106,147
�����w�O,��������,2022/6/2,10:00,162,194
�����w�O,��������,2022/6/2,11:00,133,150
�����w�O,��������,2022/6/2,12:00,159,152
�����w�O,��������,2022/6/2,13:00,133,153
�����w�O,��������,2022/6/2,14:00,161,163
�����w�O,��������,2022/6/2,15:00,169,203
�����w�O,��������,2022/6/2,16:00,192,185
�����w�O,��������,2022/6/2,17:00,258,198
�����w�O,��������,2022/6/2,18:00,416,439
�����w�O,��������,2022/6/2,19:00,238,238
�����w�O,��������,2022/6/2,20:00,78,81
�����w�O,��������,2022/6/2,21:00,32,50
�����w�O,��������,2022/6/2,22:00,32,61
�����w�O,��������,2022/6/2,23:00,28,52
�����w�O,��������,2022/6/3,0:00,5,12
�����w�O,��������,2022/6/3,1:00,0,3
�����w�O,��������,2022/6/3,2:00,2,1
�����w�O,��������,2022/6/3,3:00,4,3
�����w�O,��������,2022/6/3,4:00,0,1
�����w�O,��������,2022/6/3,5:00,12,8
�����w�O,��������,2022/6/3,6:00,86,60
�����w�O,��������,2022/6/3,7:00,172,191
�����w�O,��������,2022/6/3,8:00,145,236
�����w�O,��������,2022/6/3,9:00,118,198
�����w�O,��������,2022/6/3,10:00,222,269
�����w�O,��������,2022/6/3,11:00,180,239
�����w�O,��������,2022/6/3,12:00,181,252
�����w�O,��������,2022/6/3,13:00,204,195
�����w�O,��������,2022/6/3,14:00,216,203
�����w�O,��������,2022/6/3,15:00,202,246
�����w�O,��������,2022/6/3,16:00,258,254
�����w�O,��������,2022/6/3,17:00,270,261
�����w�O,��������,2022/6/3,18:00,406,284
�����w�O,��������,2022/6/3,19:00,279,271
�����w�O,��������,2022/6/3,20:00,157,140
�����w�O,��������,2022/6/3,21:00,97,112
�����w�O,��������,2022/6/3,22:00,41,83
�����w�O,��������,2022/6/3,23:00,24,49
�����w�O,��������,2022/6/4,0:00,5,12
�����w�O,��������,2022/6/4,1:00,8,12
�����w�O,��������,2022/6/4,2:00,2,3
�����w�O,��������,2022/6/4,3:00,4,7
�����w�O,��������,2022/6/4,4:00,4,4
�����w�O,��������,2022/6/4,5:00,47,32
�����w�O,��������,2022/6/4,6:00,68,37
�����w�O,��������,2022/6/4,7:00,133,123
�����w�O,��������,2022/6/4,8:00,161,191
�����w�O,��������,2022/6/4,9:00,261,291
�����w�O,��������,2022/6/4,10:00,351,298
�����w�O,��������,2022/6/4,11:00,291,287
�����w�O,��������,2022/6/4,12:00,398,359
�����w�O,��������,2022/6/4,13:00,427,356
�����w�O,��������,2022/6/4,14:00,258,327
�����w�O,��������,2022/6/4,15:00,261,300
�����w�O,��������,2022/6/4,16:00,300,279
�����w�O,��������,2022/6/4,17:00,332,303
�����w�O,��������,2022/6/4,18:00,247,227
�����w�O,��������,2022/6/4,19:00,173,189
�����w�O,��������,2022/6/4,20:00,106,88
�����w�O,��������,2022/6/4,21:00,100,166
�����w�O,��������,2022/6/4,22:00,99,136
�����w�O,��������,2022/6/4,23:00,27,72
�����w�O,��������,2022/6/5,0:00,9,19
�����w�O,��������,2022/6/5,1:00,2,3
�����w�O,��������,2022/6/5,2:00,0,5
�����w�O,��������,2022/6/5,3:00,5,6
�����w�O,��������,2022/6/5,4:00,6,3
�����w�O,��������,2022/6/5,5:00,8,13
�����w�O,��������,2022/6/5,6:00,80,69
�����w�O,��������,2022/6/5,7:00,75,75
�����w�O,��������,2022/6/5,8:00,152,147
�����w�O,��������,2022/6/5,9:00,272,314
�����w�O,��������,2022/6/5,10:00,248,198
�����w�O,��������,2022/6/5,11:00,279,279
�����w�O,��������,2022/6/5,12:00,309,283
�����w�O,��������,2022/6/5,13:00,304,323
�����w�O,��������,2022/6/5,14:00,343,291
�����w�O,��������,2022/6/5,15:00,224,207
�����w�O,��������,2022/6/5,16:00,192,199
�����w�O,��������,2022/6/5,17:00,217,186
�����w�O,��������,2022/6/5,18:00,166,166
�����w�O,��������,2022/6/5,19:00,119,130
�����w�O,��������,2022/6/5,20:00,34,65
�����w�O,��������,2022/6/5,21:00,36,60
�����w�O,��������,2022/6/5,22:00,23,43
�����w�O,��������,2022/6/5,23:00,2,12
�����w�O,��������,2022/6/6,0:00,2,2
�����w�O,��������,2022/6/6,1:00,0,0
�����w�O,��������,2022/6/6,2:00,2,1
�����w�O,��������,2022/6/6,3:00,2,2
�����w�O,��������,2022/6/6,4:00,5,2
�����w�O,��������,2022/6/6,5:00,10,7
�����w�O,��������,2022/6/6,6:00,91,35
�����w�O,��������,2022/6/6,7:00,204,205
�����w�O,��������,2022/6/6,8:00,136,190
�����w�O,��������,2022/6/6,9:00,136,176
�����w�O,��������,2022/6/6,10:00,173,149
�����w�O,��������,2022/6/6,11:00,128,146
�����w�O,��������,2022/6/6,12:00,193,196
�����w�O,��������,2022/6/6,13:00,153,175
�����w�O,��������,2022/6/6,14:00,120,175
�����w�O,��������,2022/6/6,15:00,145,187
�����w�O,��������,2022/6/6,16:00,247,268
�����w�O,��������,2022/6/6,17:00,247,263
�����w�O,��������,2022/6/6,18:00,214,214
�����w�O,��������,2022/6/6,19:00,218,214
�����w�O,��������,2022/6/6,20:00,88,90
�����w�O,��������,2022/6/6,21:00,67,57
�����w�O,��������,2022/6/6,22:00,22,35
�����w�O,��������,2022/6/6,23:00,3,9
�����w�O,��������,2022/6/7,0:00,3,2
�����w�O,��������,2022/6/7,1:00,0,2
�����w�O,��������,2022/6/7,2:00,3,2
�����w�O,��������,2022/6/7,3:00,4,4
�����w�O,��������,2022/6/7,4:00,2,3
�����w�O,��������,2022/6/7,5:00,10,8
�����w�O,��������,2022/6/7,6:00,70,66
�����w�O,��������,2022/6/7,7:00,232,195
�����w�O,��������,2022/6/7,8:00,159,228
�����w�O,��������,2022/6/7,9:00,127,190
�����w�O,��������,2022/6/7,10:00,159,166
�����w�O,��������,2022/6/7,11:00,191,203
�����w�O,��������,2022/6/7,12:00,176,206
�����w�O,��������,2022/6/7,13:00,144,194
�����w�O,��������,2022/6/7,14:00,152,173
�����w�O,��������,2022/6/7,15:00,131,166
�����w�O,��������,2022/6/7,16:00,173,160
�����w�O,��������,2022/6/7,17:00,295,234
�����w�O,��������,2022/6/7,18:00,221,224
�����w�O,��������,2022/6/7,19:00,170,166
�����w�O,��������,2022/6/7,20:00,139,130
�����w�O,��������,2022/6/7,21:00,64,75
�����w�O,��������,2022/6/7,22:00,24,62
�����w�O,��������,2022/6/7,23:00,6,19
�����w�O,��������,2022/6/8,0:00,0,15
�����w�O,��������,2022/6/8,1:00,1,1
�����w�O,��������,2022/6/8,2:00,1,0
�����w�O,��������,2022/6/8,3:00,3,4
�����w�O,��������,2022/6/8,4:00,6,2
�����w�O,��������,2022/6/8,5:00,6,11
�����w�O,��������,2022/6/8,6:00,67,55
�����w�O,��������,2022/6/8,7:00,182,169
�����w�O,��������,2022/6/8,8:00,134,234
�����w�O,��������,2022/6/8,9:00,134,186
�����w�O,��������,2022/6/8,10:00,148,191
�����w�O,��������,2022/6/8,11:00,161,180
�����w�O,��������,2022/6/8,12:00,183,214
�����w�O,��������,2022/6/8,13:00,129,154
�����w�O,��������,2022/6/8,14:00,144,214
�����w�O,��������,2022/6/8,15:00,193,234
�����w�O,��������,2022/6/8,16:00,346,314
�����w�O,��������,2022/6/8,17:00,307,252
�����w�O,��������,2022/6/8,18:00,265,225
�����w�O,��������,2022/6/8,19:00,223,227
�����w�O,��������,2022/6/8,20:00,89,112
�����w�O,��������,2022/6/8,21:00,50,81
�����w�O,��������,2022/6/8,22:00,10,59
�����w�O,��������,2022/6/8,23:00,11,22
�����w�O,��������,2022/6/9,0:00,1,17
�����w�O,��������,2022/6/9,1:00,4,3
�����w�O,��������,2022/6/9,2:00,1,2
�����w�O,��������,2022/6/9,3:00,4,4
�����w�O,��������,2022/6/9,4:00,5,1
�����w�O,��������,2022/6/9,5:00,22,18
�����w�O,��������,2022/6/9,6:00,71,63
�����w�O,��������,2022/6/9,7:00,185,180
�����w�O,��������,2022/6/9,8:00,139,208
�����w�O,��������,2022/6/9,9:00,119,173
�����w�O,��������,2022/6/9,10:00,173,173
�����w�O,��������,2022/6/9,11:00,153,179
�����w�O,��������,2022/6/9,12:00,192,210
�����w�O,��������,2022/6/9,13:00,158,154
�����w�O,��������,2022/6/9,14:00,160,173
�����w�O,��������,2022/6/9,15:00,191,217
�����w�O,��������,2022/6/9,16:00,323,326
�����w�O,��������,2022/6/9,17:00,380,335
�����w�O,��������,2022/6/9,18:00,355,323
�����w�O,��������,2022/6/9,19:00,227,245
�����w�O,��������,2022/6/9,20:00,223,208
�����w�O,��������,2022/6/9,21:00,71,118
�����w�O,��������,2022/6/9,22:00,21,41
�����w�O,��������,2022/6/9,23:00,14,23
�����w�O,��������,2022/6/10,0:00,5,10
�����w�O,��������,2022/6/10,1:00,1,3
�����w�O,��������,2022/6/10,2:00,0,2
�����w�O,��������,2022/6/10,3:00,5,3
�����w�O,��������,2022/6/10,4:00,2,0
�����w�O,��������,2022/6/10,5:00,12,11
�����w�O,��������,2022/6/10,6:00,79,56
�����w�O,��������,2022/6/10,7:00,238,187
�����w�O,��������,2022/6/10,8:00,210,279
�����w�O,��������,2022/6/10,9:00,149,187
�����w�O,��������,2022/6/10,10:00,177,204
�����w�O,��������,2022/6/10,11:00,170,186
�����w�O,��������,2022/6/10,12:00,174,204
�����w�O,��������,2022/6/10,13:00,193,199
�����w�O,��������,2022/6/10,14:00,176,234
�����w�O,��������,2022/6/10,15:00,191,233
�����w�O,��������,2022/6/10,16:00,456,597
�����w�O,��������,2022/6/10,17:00,317,247
�����w�O,��������,2022/6/10,18:00,309,278
�����w�O,��������,2022/6/10,19:00,175,190
�����w�O,��������,2022/6/10,20:00,73,115
�����w�O,��������,2022/6/10,21:00,84,110
�����w�O,��������,2022/6/10,22:00,57,78
�����w�O,��������,2022/6/10,23:00,60,86
�����w�O,��������,2022/6/11,0:00,2,18
�����w�O,��������,2022/6/11,1:00,2,8
�����w�O,��������,2022/6/11,2:00,6,7
�����w�O,��������,2022/6/11,3:00,8,7
�����w�O,��������,2022/6/11,4:00,1,3
�����w�O,��������,2022/6/11,5:00,13,11
�����w�O,��������,2022/6/11,6:00,47,36
�����w�O,��������,2022/6/11,7:00,123,77
�����w�O,��������,2022/6/11,8:00,149,137
�����w�O,��������,2022/6/11,9:00,160,174
�����w�O,��������,2022/6/11,10:00,187,221
�����w�O,��������,2022/6/11,11:00,218,186
�����w�O,��������,2022/6/11,12:00,247,224
�����w�O,��������,2022/6/11,13:00,269,301
�����w�O,��������,2022/6/11,14:00,202,274
�����w�O,��������,2022/6/11,15:00,232,233
�����w�O,��������,2022/6/11,16:00,254,280
�����w�O,��������,2022/6/11,17:00,271,229
�����w�O,��������,2022/6/11,18:00,258,189
�����w�O,��������,2022/6/11,19:00,178,185
�����w�O,��������,2022/6/11,20:00,111,166
�����w�O,��������,2022/6/11,21:00,125,148
�����w�O,��������,2022/6/11,22:00,39,115
�����w�O,��������,2022/6/11,23:00,28,68
�����w�O,��������,2022/6/12,0:00,11,22
�����w�O,��������,2022/6/12,1:00,0,9
�����w�O,��������,2022/6/12,2:00,4,4
�����w�O,��������,2022/6/12,3:00,3,2
�����w�O,��������,2022/6/12,4:00,5,5
�����w�O,��������,2022/6/12,5:00,14,9
�����w�O,��������,2022/6/12,6:00,40,41
�����w�O,��������,2022/6/12,7:00,131,74
�����w�O,��������,2022/6/12,8:00,148,156
�����w�O,��������,2022/6/12,9:00,277,288
�����w�O,��������,2022/6/12,10:00,344,314
�����w�O,��������,2022/6/12,11:00,349,328
�����w�O,��������,2022/6/12,12:00,399,369
�����w�O,��������,2022/6/12,13:00,350,296
�����w�O,��������,2022/6/12,14:00,279,320
�����w�O,��������,2022/6/12,15:00,285,338
�����w�O,��������,2022/6/12,16:00,300,326
�����w�O,��������,2022/6/12,17:00,344,371
�����w�O,��������,2022/6/12,18:00,215,244
�����w�O,��������,2022/6/12,19:00,160,211
�����w�O,��������,2022/6/12,20:00,126,121
�����w�O,��������,2022/6/12,21:00,51,87
�����w�O,��������,2022/6/12,22:00,31,37
�����w�O,��������,2022/6/12,23:00,49,57
�����w�O,��������,2022/6/13,0:00,2,3
�����w�O,��������,2022/6/13,1:00,0,12
�����w�O,��������,2022/6/13,2:00,2,1
�����w�O,��������,2022/6/13,3:00,0,1
�����w�O,��������,2022/6/13,4:00,5,2
�����w�O,��������,2022/6/13,5:00,14,11
�����w�O,��������,2022/6/13,6:00,69,55
�����w�O,��������,2022/6/13,7:00,190,189
�����w�O,��������,2022/6/13,8:00,161,268
�����w�O,��������,2022/6/13,9:00,119,151
�����w�O,��������,2022/6/13,10:00,183,213
�����w�O,��������,2022/6/13,11:00,159,194
�����w�O,��������,2022/6/13,12:00,198,225
�����w�O,��������,2022/6/13,13:00,160,158
�����w�O,��������,2022/6/13,14:00,194,221
�����w�O,��������,2022/6/13,15:00,263,281
�����w�O,��������,2022/6/13,16:00,263,267
�����w�O,��������,2022/6/13,17:00,290,241
�����w�O,��������,2022/6/13,18:00,301,327
�����w�O,��������,2022/6/13,19:00,338,318
�����w�O,��������,2022/6/13,20:00,79,103
�����w�O,��������,2022/6/13,21:00,117,135
�����w�O,��������,2022/6/13,22:00,44,72
�����w�O,��������,2022/6/13,23:00,8,16
�����w�O,��������,2022/6/14,0:00,4,12
�����w�O,��������,2022/6/14,1:00,0,2
�����w�O,��������,2022/6/14,2:00,1,0
�����w�O,��������,2022/6/14,3:00,3,4
�����w�O,��������,2022/6/14,4:00,2,2
�����w�O,��������,2022/6/14,5:00,20,7
�����w�O,��������,2022/6/14,6:00,118,61
�����w�O,��������,2022/6/14,7:00,210,200
�����w�O,��������,2022/6/14,8:00,177,242
�����w�O,��������,2022/6/14,9:00,124,191
�����w�O,��������,2022/6/14,10:00,127,165
�����w�O,��������,2022/6/14,11:00,149,151
�����w�O,��������,2022/6/14,12:00,130,140
�����w�O,��������,2022/6/14,13:00,125,167
�����w�O,��������,2022/6/14,14:00,115,164
�����w�O,��������,2022/6/14,15:00,166,192
�����w�O,��������,2022/6/14,16:00,189,219
�����w�O,��������,2022/6/14,17:00,264,227
�����w�O,��������,2022/6/14,18:00,174,179
�����w�O,��������,2022/6/14,19:00,248,304
�����w�O,��������,2022/6/14,20:00,64,76
�����w�O,��������,2022/6/14,21:00,51,75
�����w�O,��������,2022/6/14,22:00,26,48
�����w�O,��������,2022/6/14,23:00,9,12
�����w�O,��������,2022/6/15,0:00,5,2
�����w�O,��������,2022/6/15,1:00,2,10
�����w�O,��������,2022/6/15,2:00,3,3
�����w�O,��������,2022/6/15,3:00,5,4
�����w�O,��������,2022/6/15,4:00,3,1
�����w�O,��������,2022/6/15,5:00,8,7
�����w�O,��������,2022/6/15,6:00,84,57
�����w�O,��������,2022/6/15,7:00,194,184
�����w�O,��������,2022/6/15,8:00,151,291
�����w�O,��������,2022/6/15,9:00,144,192
�����w�O,��������,2022/6/15,10:00,166,185
�����w�O,��������,2022/6/15,11:00,161,178
�����w�O,��������,2022/6/15,12:00,194,177
�����w�O,��������,2022/6/15,13:00,120,135
�����w�O,��������,2022/6/15,14:00,135,170
�����w�O,��������,2022/6/15,15:00,206,208
�����w�O,��������,2022/6/15,16:00,272,227
�����w�O,��������,2022/6/15,17:00,348,257
�����w�O,��������,2022/6/15,18:00,227,186
�����w�O,��������,2022/6/15,19:00,136,169
�����w�O,��������,2022/6/15,20:00,82,107
�����w�O,��������,2022/6/15,21:00,40,74
�����w�O,��������,2022/6/15,22:00,30,57
�����w�O,��������,2022/6/15,23:00,15,16
�����w�O,��������,2022/6/16,0:00,3,13
�����w�O,��������,2022/6/16,1:00,0,4
�����w�O,��������,2022/6/16,2:00,1,0
�����w�O,��������,2022/6/16,3:00,4,5
�����w�O,��������,2022/6/16,4:00,6,3
�����w�O,��������,2022/6/16,5:00,8,14
�����w�O,��������,2022/6/16,6:00,70,54
�����w�O,��������,2022/6/16,7:00,180,167
�����w�O,��������,2022/6/16,8:00,167,273
�����w�O,��������,2022/6/16,9:00,128,164
�����w�O,��������,2022/6/16,10:00,235,239
�����w�O,��������,2022/6/16,11:00,174,198
�����w�O,��������,2022/6/16,12:00,169,195
�����w�O,��������,2022/6/16,13:00,183,168
�����w�O,��������,2022/6/16,14:00,167,197
�����w�O,��������,2022/6/16,15:00,185,203
�����w�O,��������,2022/6/16,16:00,197,209
�����w�O,��������,2022/6/16,17:00,279,240
�����w�O,��������,2022/6/16,18:00,268,230
�����w�O,��������,2022/6/16,19:00,328,276
�����w�O,��������,2022/6/16,20:00,118,137
�����w�O,��������,2022/6/16,21:00,66,106
�����w�O,��������,2022/6/16,22:00,43,60
�����w�O,��������,2022/6/16,23:00,14,32
�����w�O,��������,2022/6/17,0:00,7,21
�����w�O,��������,2022/6/17,1:00,0,1
�����w�O,��������,2022/6/17,2:00,1,1
�����w�O,��������,2022/6/17,3:00,2,3
�����w�O,��������,2022/6/17,4:00,5,1
�����w�O,��������,2022/6/17,5:00,11,13
�����w�O,��������,2022/6/17,6:00,78,40
�����w�O,��������,2022/6/17,7:00,184,163
�����w�O,��������,2022/6/17,8:00,155,247
�����w�O,��������,2022/6/17,9:00,126,189
�����w�O,��������,2022/6/17,10:00,202,208
�����w�O,��������,2022/6/17,11:00,166,226
�����w�O,��������,2022/6/17,12:00,211,247
�����w�O,��������,2022/6/17,13:00,216,227
�����w�O,��������,2022/6/17,14:00,270,303
�����w�O,��������,2022/6/17,15:00,187,219
�����w�O,��������,2022/6/17,16:00,250,242
�����w�O,��������,2022/6/17,17:00,323,268
�����w�O,��������,2022/6/17,18:00,315,271
�����w�O,��������,2022/6/17,19:00,383,406
�����w�O,��������,2022/6/17,20:00,129,144
�����w�O,��������,2022/6/17,21:00,133,112
�����w�O,��������,2022/6/17,22:00,53,98
�����w�O,��������,2022/6/17,23:00,42,65
�����w�O,��������,2022/6/18,0:00,29,49
�����w�O,��������,2022/6/18,1:00,3,5
�����w�O,��������,2022/6/18,2:00,2,6
�����w�O,��������,2022/6/18,3:00,3,3
�����w�O,��������,2022/6/18,4:00,8,8
�����w�O,��������,2022/6/18,5:00,16,17
�����w�O,��������,2022/6/18,6:00,44,22
�����w�O,��������,2022/6/18,7:00,127,75
�����w�O,��������,2022/6/18,8:00,154,145
�����w�O,��������,2022/6/18,9:00,253,222
�����w�O,��������,2022/6/18,10:00,387,399
�����w�O,��������,2022/6/18,11:00,272,300
�����w�O,��������,2022/6/18,12:00,339,415
�����w�O,��������,2022/6/18,13:00,305,321
�����w�O,��������,2022/6/18,14:00,290,311
�����w�O,��������,2022/6/18,15:00,296,334
�����w�O,��������,2022/6/18,16:00,308,305
�����w�O,��������,2022/6/18,17:00,300,303
�����w�O,��������,2022/6/18,18:00,319,250
�����w�O,��������,2022/6/18,19:00,295,236
�����w�O,��������,2022/6/18,20:00,144,175
�����w�O,��������,2022/6/18,21:00,136,181
�����w�O,��������,2022/6/18,22:00,78,150
�����w�O,��������,2022/6/18,23:00,40,70
�����w�O,��������,2022/6/19,0:00,9,26
�����w�O,��������,2022/6/19,1:00,1,10
�����w�O,��������,2022/6/19,2:00,16,17
�����w�O,��������,2022/6/19,3:00,5,5
�����w�O,��������,2022/6/19,4:00,7,8
�����w�O,��������,2022/6/19,5:00,7,15
�����w�O,��������,2022/6/19,6:00,24,33
�����w�O,��������,2022/6/19,7:00,97,66
�����w�O,��������,2022/6/19,8:00,127,123
�����w�O,��������,2022/6/19,9:00,214,182
�����w�O,��������,2022/6/19,10:00,296,278
�����w�O,��������,2022/6/19,11:00,330,227
�����w�O,��������,2022/6/19,12:00,335,307
�����w�O,��������,2022/6/19,13:00,424,380
�����w�O,��������,2022/6/19,14:00,256,344
�����w�O,��������,2022/6/19,15:00,252,316
�����w�O,��������,2022/6/19,16:00,204,256
�����w�O,��������,2022/6/19,17:00,269,249
�����w�O,��������,2022/6/19,18:00,299,196
�����w�O,��������,2022/6/19,19:00,234,229
�����w�O,��������,2022/6/19,20:00,110,88
�����w�O,��������,2022/6/19,21:00,52,80
�����w�O,��������,2022/6/19,22:00,41,49
�����w�O,��������,2022/6/19,23:00,5,23
�����w�O,��������,2022/6/20,0:00,3,6
�����w�O,��������,2022/6/20,1:00,0,2
�����w�O,��������,2022/6/20,2:00,8,13
�����w�O,��������,2022/6/20,3:00,2,3
�����w�O,��������,2022/6/20,4:00,5,3
�����w�O,��������,2022/6/20,5:00,8,10
�����w�O,��������,2022/6/20,6:00,66,57
�����w�O,��������,2022/6/20,7:00,160,177
�����w�O,��������,2022/6/20,8:00,147,237
�����w�O,��������,2022/6/20,9:00,153,191
�����w�O,��������,2022/6/20,10:00,168,209
�����w�O,��������,2022/6/20,11:00,148,192
�����w�O,��������,2022/6/20,12:00,209,223
�����w�O,��������,2022/6/20,13:00,165,182
�����w�O,��������,2022/6/20,14:00,152,185
�����w�O,��������,2022/6/20,15:00,137,173
�����w�O,��������,2022/6/20,16:00,184,192
�����w�O,��������,2022/6/20,17:00,279,241
�����w�O,��������,2022/6/20,18:00,202,186
�����w�O,��������,2022/6/20,19:00,241,227
�����w�O,��������,2022/6/20,20:00,79,85
�����w�O,��������,2022/6/20,21:00,112,98
�����w�O,��������,2022/6/20,22:00,17,45
�����w�O,��������,2022/6/20,23:00,14,12
�����w�O,��������,2022/6/21,0:00,3,3
�����w�O,��������,2022/6/21,1:00,1,1
�����w�O,��������,2022/6/21,2:00,1,1
�����w�O,��������,2022/6/21,3:00,3,4
�����w�O,��������,2022/6/21,4:00,2,3
�����w�O,��������,2022/6/21,5:00,8,13
�����w�O,��������,2022/6/21,6:00,90,47
�����w�O,��������,2022/6/21,7:00,220,204
�����w�O,��������,2022/6/21,8:00,148,249
�����w�O,��������,2022/6/21,9:00,102,140
�����w�O,��������,2022/6/21,10:00,127,132
�����w�O,��������,2022/6/21,11:00,138,165
�����w�O,��������,2022/6/21,12:00,154,179
�����w�O,��������,2022/6/21,13:00,115,135
�����w�O,��������,2022/6/21,14:00,166,171
�����w�O,��������,2022/6/21,15:00,128,148
�����w�O,��������,2022/6/21,16:00,182,229
�����w�O,��������,2022/6/21,17:00,284,249
�����w�O,��������,2022/6/21,18:00,200,221
�����w�O,��������,2022/6/21,19:00,114,155
�����w�O,��������,2022/6/21,20:00,57,84
�����w�O,��������,2022/6/21,21:00,58,80
�����w�O,��������,2022/6/21,22:00,22,63
�����w�O,��������,2022/6/21,23:00,9,20
�����w�O,��������,2022/6/22,0:00,1,0
�����w�O,��������,2022/6/22,1:00,0,2
�����w�O,��������,2022/6/22,2:00,0,2
�����w�O,��������,2022/6/22,3:00,5,4
�����w�O,��������,2022/6/22,4:00,5,6
�����w�O,��������,2022/6/22,5:00,8,9
�����w�O,��������,2022/6/22,6:00,86,41
�����w�O,��������,2022/6/22,7:00,204,228
�����w�O,��������,2022/6/22,8:00,147,263
�����w�O,��������,2022/6/22,9:00,104,159
�����w�O,��������,2022/6/22,10:00,171,188
�����w�O,��������,2022/6/22,11:00,160,214
�����w�O,��������,2022/6/22,12:00,141,185
�����w�O,��������,2022/6/22,13:00,149,168
�����w�O,��������,2022/6/22,14:00,144,220
�����w�O,��������,2022/6/22,15:00,170,208
�����w�O,��������,2022/6/22,16:00,269,327
�����w�O,��������,2022/6/22,17:00,434,313
�����w�O,��������,2022/6/22,18:00,235,202
�����w�O,��������,2022/6/22,19:00,174,171
�����w�O,��������,2022/6/22,20:00,80,85
�����w�O,��������,2022/6/22,21:00,84,73
�����w�O,��������,2022/6/22,22:00,28,74
�����w�O,��������,2022/6/22,23:00,26,46
�����w�O,��������,2022/6/23,0:00,2,8
�����w�O,��������,2022/6/23,1:00,1,2
�����w�O,��������,2022/6/23,2:00,0,1
�����w�O,��������,2022/6/23,3:00,10,11
�����w�O,��������,2022/6/23,4:00,3,0
�����w�O,��������,2022/6/23,5:00,10,11
�����w�O,��������,2022/6/23,6:00,71,47
�����w�O,��������,2022/6/23,7:00,198,186
�����w�O,��������,2022/6/23,8:00,134,233
�����w�O,��������,2022/6/23,9:00,123,163
�����w�O,��������,2022/6/23,10:00,157,170
�����w�O,��������,2022/6/23,11:00,165,201
�����w�O,��������,2022/6/23,12:00,146,170
�����w�O,��������,2022/6/23,13:00,137,152
�����w�O,��������,2022/6/23,14:00,140,159
�����w�O,��������,2022/6/23,15:00,132,173
�����w�O,��������,2022/6/23,16:00,359,281
�����w�O,��������,2022/6/23,17:00,534,403
�����w�O,��������,2022/6/23,18:00,261,247
�����w�O,��������,2022/6/23,19:00,234,219
�����w�O,��������,2022/6/23,20:00,99,107
�����w�O,��������,2022/6/23,21:00,75,91
�����w�O,��������,2022/6/23,22:00,33,61
�����w�O,��������,2022/6/23,23:00,18,38
�����w�O,��������,2022/6/24,0:00,6,18
�����w�O,��������,2022/6/24,1:00,2,1
�����w�O,��������,2022/6/24,2:00,2,2
�����w�O,��������,2022/6/24,3:00,5,3
�����w�O,��������,2022/6/24,4:00,3,5
�����w�O,��������,2022/6/24,5:00,15,10
�����w�O,��������,2022/6/24,6:00,86,67
�����w�O,��������,2022/6/24,7:00,178,197
�����w�O,��������,2022/6/24,8:00,158,214
�����w�O,��������,2022/6/24,9:00,161,240
�����w�O,��������,2022/6/24,10:00,167,181
�����w�O,��������,2022/6/24,11:00,138,193
�����w�O,��������,2022/6/24,12:00,175,268
�����w�O,��������,2022/6/24,13:00,182,179
�����w�O,��������,2022/6/24,14:00,255,167
�����w�O,��������,2022/6/24,15:00,285,191
�����w�O,��������,2022/6/24,16:00,333,341
�����w�O,��������,2022/6/24,17:00,321,263
�����w�O,��������,2022/6/24,18:00,339,272
�����w�O,��������,2022/6/24,19:00,213,170
�����w�O,��������,2022/6/24,20:00,107,106
�����w�O,��������,2022/6/24,21:00,93,122
�����w�O,��������,2022/6/24,22:00,103,117
�����w�O,��������,2022/6/24,23:00,24,71
�����w�O,��������,2022/6/25,0:00,10,15
�����w�O,��������,2022/6/25,1:00,3,6
�����w�O,��������,2022/6/25,2:00,15,7
�����w�O,��������,2022/6/25,3:00,11,8
�����w�O,��������,2022/6/25,4:00,12,8
�����w�O,��������,2022/6/25,5:00,14,17
�����w�O,��������,2022/6/25,6:00,38,39
�����w�O,��������,2022/6/25,7:00,96,69
�����w�O,��������,2022/6/25,8:00,173,154